Regional Weather Roundup
Issued by NWS Charleston, WV

Home | Current Version | Previous Version | Graphics & Text | Print | Product List | Glossary On
Versions: 1 2 3 4 5 6 7 8 9 10 11 12 13 14 15 16 17 18 19 20 21 22 23 24 25 26 27 28 29 30 31 32 33 34 35 36 37 38 39 40 41 42 43 44 45 46 47 48 49 50
256
ASUS41 KRLX 191610
RWRRLX
West Virginia Regional Weather Roundup
National Weather Service Charleston WV
1200 PM EDT THU APR 19 2018

Note: "fair" indicates few or no clouds below 12,000 feet with no
significant weather and/or obstructions to visibility.

WVZ003-191700-
Northern Panhandle of West Virginia

CITY           SKY/WX    TMP DP  RH WIND       PRES   REMARKS
WHEELING       CLOUDY    36  26  67 NW20      30.03R
$$

WVZ009-191700-
Northwest West Virginia

CITY           SKY/WX    TMP DP  RH WIND       PRES   REMARKS
PARKERSBURG    LGT RAIN  42  33  70 W10G21    30.11R
$$

WVZ006-191700-
Western West Virginia

CITY           SKY/WX    TMP DP  RH WIND       PRES   REMARKS
HUNTINGTON     CLOUDY    42  29  59 W10G20    30.14R
$$

WVZ015-191700-
West Central West Virginia

CITY           SKY/WX    TMP DP  RH WIND       PRES   REMARKS
CHARLESTON     CLOUDY    41  31  67 NW14G21   30.10R
$$

WVZ022-031-191700-
North Central West Virginia

CITY           SKY/WX    TMP DP  RH WIND       PRES   REMARKS
CLARKSBURG     LGT RAIN  40  34  79 NW13G24   30.01R
MORGANTOWN     LGT SNOW  36  33  89 W8G18     30.01R FOG
$$

WVZ025-035-042-045-191700-
Southern West Virginia

CITY           SKY/WX    TMP DP  RH WIND       PRES   REMARKS
BECKLEY        CLOUDY    34  30  85 NW16      30.03R
LOGAN          CLOUDY    39  28  65 W9        30.09R
BLUEFIELD      CLOUDY    34  25  69 NW14G28   30.02R
LEWISBURG      CLOUDY    37  30  74 NW18G28   30.01R
$$

WVZ047-191700-
Northern Mountains of West Virginia

CITY           SKY/WX    TMP DP  RH WIND       PRES   REMARKS
ELKINS         LGT SNOW  36  32  85 W13G24    29.97R FOG
$$

WVZ052-191700-
Eastern Panhandle of West Virginia

CITY           SKY/WX    TMP DP  RH WIND       PRES   REMARKS
MARTINSBURG    CLOUDY    49  34  56 W17G33    29.82R
PETERSBURG     CLOUDY    46  32  58 W20G25    29.91R
$$




USA.gov is the U.S. government's official web portal to all federal, state and local government web resources and services.